CW0988 Weather Reports


time (UTC)temp
C
wind
direction
speed
KPH
gust
KPH
rain 1hr
cm
rain 24hr
cm
rain mn
cm
humidity
%
barometer
mb
20260505073022 20 233 6.4 12.9 0.00 0.00 0.00 40 1007.1
20260505072507 20 229 4.8 8.0 0.00 0.00 0.00 40 1007.1
20260505072010 21 252 3.2 9.7 0.00 0.00 0.00 40 1007.2
20260505071528 21 248 4.8 9.7 0.00 0.00 0.00 39 1007.2
20260505071011 21 240 3.2 12.9 0.00 0.00 0.00 39 1007.2
20260505070504 21 264 4.8 12.9 0.00 0.00 0.00 39 1007.1
20260505070024 21 232 6.4 12.9 0.00 0.00 0.00 39 1007.0
20260505065508 21 237 8.0 14.5 0.00 0.00 0.00 40 1006.9
20260505065006 21 229 8.0 14.5 0.00 0.00 0.00 40 1006.9
20260505064524 21 278 8.0 12.9 0.00 0.00 0.00 41 1006.9
20260505064008 21 239 6.4 12.9 0.00 0.00 0.00 41 1006.9
20260505063510 21 274 4.8 14.5 0.00 0.00 0.00 42 1006.9
20260505063028 21 254 6.4 16.1 0.00 0.00 0.00 42 1006.9
20260505062507 21 242 8.0 16.1 0.00 0.00 0.00 43 1006.9
20260505062008 20 260 8.0 12.9 0.00 0.00 0.00 43 1006.9
20260505061524 20 251 4.8 11.3 0.00 0.00 0.00 44 1006.9
20260505061008 20 244 4.8 11.3 0.00 0.00 0.00 44 1006.8
20260505060511 20 215 6.4 12.9 0.00 0.00 0.00 44 1006.7
20260505060028 20 234 4.8 12.9 0.00 0.00 0.00 44 1006.7
20260505055512 20 245 6.4 12.9 0.00 0.00 0.00 44 1006.7
20260505055012 20 213 6.4 12.9 0.00 0.00 0.00 46 1006.7
20260505054519 20 220 4.8 12.9 0.00 0.00 0.00 48 1006.8
20260505054007 20 233 3.2 12.9 0.00 0.00 0.00 49 1006.7
20260505053509 20 244 8.0 12.9 0.00 0.00 0.00 48 1006.7
20260505053027 20 220 9.7 12.9 0.00 0.00 0.00 49 1006.7
20260505052508 20 268 6.4 12.9 0.00 0.00 0.00 50 1006.6
20260505052011 20 229 4.8 11.3 0.00 0.00 0.00 49 1006.5
20260505051528 20 245 4.8 9.7 0.00 0.00 0.00 48 1006.4
20260505051011 20 213 3.2 9.7 0.00 0.00 0.00 46 1006.4
20260505050509 20 213 6.4 9.7 0.00 0.00 0.00 44 1006.4
20260505041525 21 290 8.0 17.7 0.00 0.00 0.00 41 1006.1
20260505041004 21 261 1.6 4.8 0.00 0.00 0.00 41 1005.9
20260505040504 21 74 0.0 4.8 0.00 0.00 0.00 40 1005.7
20260505040019 21 78 1.6 4.8 0.00 0.00 0.00 43 1005.6
20260505035508 21 88 1.6 6.4 0.00 0.00 0.00 41 1005.5
20260505035007 21 88 0.0 9.7 0.00 0.00 0.00 40 1005.4
20260505034534 21 92 4.8 9.7 0.00 0.00 0.00 41 1005.4
20260505034008 21 174 1.6 4.8 0.00 0.00 0.00 40 1005.3
20260505033508 21 136 1.6 4.8 0.00 0.00 0.00 40 1005.2
20260505033010 21 83 1.6 9.7 0.00 0.00 0.00 41 1005.1
20260505032507 21 115 4.8 12.9 0.00 0.00 0.00 40 1005.0
20260505032005 22 65 8.0 12.9 0.00 0.00 0.00 40 1005.0
20260505031512 21 173 8.0 11.3 0.00 0.00 0.00 39 1004.9
20260505031006 21 167 4.8 8.0 0.00 0.00 0.00 40 1004.9
20260505030507 22 165 4.8 8.0 0.00 0.00 0.00 42 1004.9
20260505030023 22 159 3.2 8.0 0.00 0.00 0.00 44 1004.9
20260505025506 22 163 4.8 8.0 0.00 0.00 0.00 40 1004.9
20260505025004 23 160 4.8 6.4 0.00 0.00 0.00 39 1004.8
20260505024507 24 170 4.8 11.3 0.00 0.00 0.00 36 1004.8
20260505024003 25 171 4.8 11.3 0.00 0.00 0.00 37 1004.9
20260505023503 26 157 4.8 9.7 0.00 0.00 0.00 33 1004.8
20260505023016 27 148 3.2 4.8 0.00 0.00 0.00 29 1004.9
20260505022508 27 149 3.2 4.8 0.00 0.00 0.00 28 1004.8
20260505022007 27 135 3.2 4.8 0.00 0.00 0.00 29 1004.9
20260505021526 27 123 3.2 9.7 0.00 0.00 0.00 27 1004.9
20260505021005 28 126 3.2 9.7 0.00 0.00 0.00 28 1004.9
20260505020503 28 130 4.8 9.7 0.00 0.00 0.00 26 1004.9
20260505020014 28 128 3.2 6.4 0.00 0.00 0.00 26 1004.9
20260505015507 28 127 3.2 6.4 0.00 0.00 0.00 26 1005.0
20260505015006 29 112 4.8 6.4 0.00 0.00 0.00 26 1004.9
20260505014522 28 117 3.2 6.4 0.00 0.00 0.00 24 1004.9
20260505014007 28 119 3.2 6.4 0.00 0.00 0.00 25 1005.0
20260505013508 28 123 4.8 9.7 0.00 0.00 0.00 28 1005.0
20260505013028 28 116 3.2 9.7 0.00 0.00 0.00 35 1005.1
20260505012502 29 97 4.8 9.7 0.00 0.00 0.00 32 1005.1
20260505012004 29 105 4.8 12.9 0.00 0.00 0.00 28 1005.1
20260505011516 30 94 6.4 12.9 0.00 0.00 0.00 26 1005.2
20260505011007 30 67 0.0 3.2 0.00 0.00 0.00 27 1005.2
20260505010507 29 342 0.0 4.8 0.00 0.00 0.00 33 1005.2
20260505010024 29 342 1.6 6.4 0.00 0.00 0.00 27 1005.2
20260505005509 29 103 4.8 9.7 0.00 0.00 0.00 34 1005.2
20260505005012 29 80 6.4 9.7 0.00 0.00 0.00 36 1005.2
20260505004515 30 111 6.4 9.7 0.00 0.00 0.00 29 1005.3
20260505004007 30 107 3.2 6.4 0.00 0.00 0.00 27 1005.3
20260505003509 30 96 4.8 6.4 0.00 0.00 0.00 29 1005.3
20260505003022 31 98 3.2 6.4 0.00 0.00 0.00 26 1005.4
20260505002506 30 80 0.0 3.2 0.00 0.00 0.00 24 1005.4
20260505002011 30 80 0.0 9.7 0.00 0.00 0.00 22 1005.4
20260505001528 30 90 1.6 11.3 0.00 0.00 0.00 23 1005.4
20260505001007 30 110 4.8 11.3 0.00 0.00 0.00 25 1005.4
20260505000504 30 292 3.2 6.4 0.00 0.00 0.00 28 1005.4
20260505000019 30 109 3.2 12.9 0.00 0.00 0.00 20 1005.4
20260504235506 30 15 3.2 12.9 0.00 0.00 0.00 22 1005.4
20260504235008 30 32 3.2 14.5 0.00 0.00 0.00 24 1005.4
20260504234527 30 34 4.8 14.5 0.00 0.00 0.00 22 1005.4
20260504234009 30 134 1.6 6.4 0.00 0.00 0.00 26 1005.5
20260504233509 30 350 3.2 12.9 0.00 0.00 0.00 24 1005.5
20260504233026 30 63 4.8 16.1 0.00 0.00 0.00 21 1005.5
20260504232505 30 9 4.8 16.1 0.00 0.00 0.00 25 1005.5
20260504232006 30 317 6.4 16.1 0.00 0.00 0.00 20 1005.5
20260504231519 30 352 8.0 12.9 0.00 0.00 0.00 20 1005.6
20260504231013 30 56 3.2 9.7 0.00 0.00 0.00 25 1005.6
20260504230507 30 74 1.6 17.7 0.00 0.00 0.00 20 1005.7
20260504230028 30 323 9.7 17.7 0.00 0.00 0.00 24 1005.8
20260504225508 30 155 1.6 8.0 0.00 0.00 0.00 29 1005.8
20260504225007 30 14 1.6 14.5 0.00 0.00 0.00 21 1005.8
20260504224517 30 24 4.8 14.5 0.00 0.00 0.00 22 1005.9
20260504224008 29 332 8.0 24.1 0.00 0.00 0.00 26 1006.0
20260504223507 29 311 9.7 24.1 0.00 0.00 0.00 23 1006.0
20260504223022 29 111 6.4 14.5 0.00 0.00 0.00 25 1006.1
20260504222507 29 92 6.4 14.5 0.00 0.00 0.00 24 1006.2
20260504222011 30 97 4.8 11.3 0.00 0.00 0.00 26 1006.3
20260504221528 30 311 1.6 9.7 0.00 0.00 0.00 25 1006.4
20260504221008 29 339 3.2 22.5 0.00 0.00 0.00 22 1006.5
20260504220506 29 349 11.3 22.5 0.00 0.00 0.00 23 1006.6
20260504220030 29 333 11.3 16.1 0.00 0.00 0.00 21 1006.6
20260504215511 30 254 6.4 11.3 0.00 0.00 0.00 26 1006.6
20260504215010 29 201 1.6 6.4 0.00 0.00 0.00 24 1006.7
20260504214526 29 79 3.2 12.9 0.00 0.00 0.00 23 1006.7
20260504214007 29 60 1.6 17.7 0.00 0.00 0.00 21 1006.8
20260504213507 29 360 9.7 17.7 0.00 0.00 0.00 24 1007.0
20260504213033 28 319 4.8 17.7 0.00 0.00 0.00 21 1007.0
20260504212510 28 360 11.3 19.3 0.00 0.00 0.00 20 1007.1
20260504212009 29 57 11.3 19.3 0.00 0.00 0.00 22 1007.2
20260504211526 29 29 4.8 19.3 0.00 0.00 0.00 20 1007.3
20260504211007 29 10 12.9 16.1 0.00 0.00 0.00 22 1007.3
20260504210511 29 66 1.6 16.1 0.00 0.00 0.00 28 1007.3
20260504210027 28 350 4.8 20.9 0.00 0.00 0.00 25 1007.4
20260504205508 28 337 11.3 20.9 0.00 0.00 0.00 23 1007.4
20260504205010 28 347 8.0 22.5 0.00 0.00 0.00 21 1007.4
20260504204537 28 313 17.7 22.5 0.00 0.00 0.00 21 1007.5
20260504204008 28 324 3.2 17.7 0.00 0.00 0.00 20 1007.6
20260504203509 28 346 6.4 14.5 0.00 0.00 0.00 20 1007.6
20260504203026 28 327 6.4 22.5 0.00 0.00 0.00 23 1007.7
20260504202510 28 44 8.0 22.5 0.00 0.00 0.00 22 1007.8
20260504202011 28 336 12.9 20.9 0.00 0.00 0.00 23 1007.8
20260504201527 28 9 11.3 16.1 0.00 0.00 0.00 26 1007.8
20260504201012 28 324 3.2 16.1 0.00 0.00 0.00 23 1007.8
20260504200511 28 316 8.0 16.1 0.00 0.00 0.00 26 1007.9
20260504200020 27 350 6.4 12.9 0.00 0.00 0.00 24 1008.0
20260504195509 27 278 4.8 11.3 0.00 0.00 0.00 24 1008.0
20260504195010 27 286 6.4 11.3 0.00 0.00 0.00 24 1008.0
20260504194527 27 28 1.6 16.1 0.00 0.00 0.00 25 1008.1
20260504194013 27 5 9.7 16.1 0.00 0.00 0.00 24 1008.1
20260504193510 27 45 4.8 17.7 0.00 0.00 0.00 26 1008.2
20260504193030 27 273 1.6 17.7 0.00 0.00 0.00 28 1008.2
20260504192509 27 300 1.6 11.3 0.00 0.00 0.00 27 1008.2
20260504192011 27 212 1.6 8.0 0.00 0.00 0.00 27 1008.3
20260504191526 27 218 3.2 16.1 0.00 0.00 0.00 33 1008.4
20260504191009 27 305 9.7 16.1 0.00 0.00 0.00 27 1008.5
20260504190511 27 38 3.2 9.7 0.00 0.00 0.00 25 1008.5
20260504190012 27 333 4.8 14.5 0.00 0.00 0.00 29 1008.6
20260504185503 27 334 8.0 14.5 0.00 0.00 0.00 26 1008.6
20260504185003 27 309 4.8 12.9 0.00 0.00 0.00 26 1008.6
20260504184508 27 9 6.4 9.7 0.00 0.00 0.00 28 1008.6
20260504184003 27 61 0.0 4.8 0.00 0.00 0.00 29 1008.6
20260504183502 26 138 0.0 11.3 0.00 0.00 0.00 25 1008.6
20260504183003 26 318 1.6 11.3 0.00 0.00 0.00 28 1008.7
20260504182503 26 296 4.8 8.0 0.00 0.00 0.00 30 1008.7
20260504182004 26 313 0.0 3.2 0.00 0.00 0.00 32 1008.7
20260504181507 26 229 0.0 6.4 0.00 0.00 0.00 30 1008.7
20260504181003 25 229 1.6 8.0 0.00 0.00 0.00 34 1008.8
20260504180505 25 268 4.8 8.0 0.00 0.00 0.00 39 1008.8
20260504180004 25 325 3.2 8.0 0.00 0.00 0.00 35 1008.8
20260504175502 25 349 4.8 8.0 0.00 0.00 0.00 34 1008.8
20260504175002 24 319 0.0 6.4 0.00 0.00 0.00 36 1008.8
20260504174507 24 325 4.8 8.0 0.00 0.00 0.00 42 1008.8
20260504174003 23 306 3.2 8.0 0.00 0.00 0.00 40 1008.8
20260504173504 23 316 4.8 8.0 0.00 0.00 0.00 40 1008.9
20260504173008 23 348 4.8 12.9 0.00 0.00 0.00 44 1008.9
20260504172504 23 348 6.4 12.9 0.00 0.00 0.00 40 1008.9
20260504172008 23 322 6.4 12.9 0.00 0.00 0.00 41 1008.9
20260504171507 23 346 8.0 12.9 0.00 0.00 0.00 40 1009.0
20260504171007 23 291 4.8 14.5 0.00 0.00 0.00 40 1009.0
20260504170504 23 304 9.7 14.5 0.00 0.00 0.00 37 1009.0
20260504151003 18 239 3.2 6.4 0.00 0.00 0.00 52 1009.2
20260504150504 17 275 3.2 6.4 0.00 0.00 0.00 52 1009.2
20260504141007 14 197 0.0 3.2 0.00 0.00 0.00 68 1008.9
20260504140504 13 197 0.0 1.6 0.00 0.00 0.00 68 1008.9